Preview of NWS' New Version of Forecast
This preview is not operational and should not be used for support decisions.

Regional Weather Roundup (RWR)

Issued by National Weather Service (NWS)

                            
000
ASUS44 KMEG 190910
RWRTN 
TENNESSEE HOURLY STATE WEATHER ROUNDUP
NATIONAL WEATHER SERVICE MEMPHIS TN
400 AM CDT TUE MAR 19 2019

TNZ002-004-019-021-049-052-054-088>092-191000-
WEST TENNESSEE
  
CITY           SKY/WX    TMP DP  RH WIND       PRES   REMARKS
MEMPHIS INTL   FAIR      44  24  45 E6        30.34F                  
NWS MEMPHIS      N/A     34 N/A N/A MISG        N/A                   
JACKSON        FAIR      31  26  82 CALM      30.37F                  
DYERSBURG      FAIR      35  31  85 E3        30.38F                  
SOMERVILLE     CLOUDY    32  28  86 CALM      30.34S                  
COVINGTON      CLEAR     34  32  93 CALM      30.36S                  
UNION CITY     CLEAR     32  30  93 CALM      30.36F                  
BOLIVAR        CLEAR     28  28 100 CALM      30.35S                  
PARIS          CLEAR     34  25  69 CALM      30.36F                  
HUNTINGDON     PTCLDY    34  25  69 CALM      30.36F                  
LEXINGTON      CLOUDY    28  25  86 CALM      30.35F                  
SAVANNAH       MOCLDY    28  28 100 CALM      30.35F                  
$$

TNZ008-025-027-028-033-062-065-066-191000-
NORTH MIDDLE TENNESSEE
  
CITY           SKY/WX    TMP DP  RH WIND       PRES   REMARKS
NASHVILLE      FAIR      32  24  72 CALM      30.37F                  
DICKSON        SUNNY     36  21  55 CALM      30.34F                  
CLARKSVILLE    FAIR      30  24  78 S3        30.37F                  
LEBANON        PTSUNNY   28  25  86 CALM      30.35F                  
SMYRNA         FAIR      26  23  88 CALM      30.38F                  
MURFREESBORO   MOSUNNY   30  25  80 CALM      30.35S                  
COOKEVILLE     CLEAR     21  19  93 CALM      30.34S                  
LIVINGSTON     SUNNY     36  16  44 CALM      30.33S                  
GALLATIN       SUNNY     30  23  74 CALM      30.39F                  
CROSSVILLE     FAIR      29  15  56 CALM      30.31F                  
ROCKWOOD       SUNNY     32  18  55 NE5       30.31F WCI  27          
$$

TNZ061-075-076-078-094-096-097-191000-
SOUTH MIDDLE TENNESSEE
  
CITY           SKY/WX    TMP DP  RH WIND       PRES   REMARKS
LAWRENCEBURG   SUNNY     30  25  80 CALM      30.34S                  
LEWISBURG      SUNNY     25  23  93 CALM      30.35S                  
FAYETTEVILLE   CLEAR     36  19  51 NE6       30.32F WCI  31          
TULLAHOMA      CLEAR     28  23  80 CALM      30.33S                  
WINCHESTER     CLEAR     28  25  86 CALM      30.33F                  
MCMINNVILLE    CLEAR     28  23  80 CALM      30.34S                  
COLUMBIA       MOCLDY    30  30 100 CALM      30.35S                  
SHELBYVILLE    CLEAR     28  25  86 CALM      30.35S                  
$$

TNZ017-018-042-046-047-191000-
NORTHEAST TENNESSEE
  
CITY           SKY/WX    TMP DP  RH WIND       PRES   REMARKS
TRI CITIES     FAIR      24  18  77 CALM      30.35F                  
ELIZABETHTON   FAIR      25  21  86 CALM      30.35F                  
GREENEVILLE    SUNNY     34  16  47 E6        30.32F WCI  29          
$$

TNZ012-013-036-069-073-074-191000-
CENTRAL EAST TENNESSEE
  
CITY           SKY/WX    TMP DP  RH WIND       PRES   REMARKS
KNOXVILLE      FAIR      35  17  47 N8        30.33F WCI  29          
OAK RIDGE      FAIR      33  22  63 CALM      30.36F                  
DOWNTOWN KNOXV CLEAR     32  30  93 CALM      30.36F                  
GATLINBURG     CLEAR     27  23  86 CALM      30.34F                  
MORRISTOWN     CLEAR     30  23  74 NE5       30.32F WCI  25          
JACKSBORO      CLEAR     27  23  86 CALM      30.38F                  
$$

TNZ083-085-099-191000-
SOUTHEAST TENNESSEE
  
CITY           SKY/WX    TMP DP  RH WIND       PRES   REMARKS
CHATTANOOGA    FAIR      40  20  44 N6        30.34S                  
DAYTON         SUNNY     32  25  74 CALM      30.34S                  
$$

SKY/WX REPORTED AS FAIR MEANS FEW OR NO CLOUDS BELOW
12 THOUSAND FEET.